Wind_Speed
48 48 48 48 49 48 48 48 47 47 47 46 46 46 46 46 46 46 46 46 46 45 45 44 43 42 41 40 39 39 39 39 39 38 38 38 37 37 36 36 36 35 35 34 34 33 33 33 33 34 34 34 33 31 29 29 28 26 24 24 24 25 27 27 29 29 28 26 25 25 26 27 27 28 29 30 34 34 29 27 26 25 26 26 26
49 48 48 49 49 49 48 48 48 48 47 47 46 46 47 47 47 47 47 47 47 46 45 44 44 43 41 41 40 39 38 38 38 38 37 37 37 36 36 35 35 34 33 33 32 32 32 31 31 31 31 31 29 27 27 28 26 24 24 23 24 25 27 28 29 29 28 27 26 26 26 27 28 28 30 31 34 34 31 28 26 25 25 26 26
48 48 49 49 49 48 48 48 48 48 48 47 47 47 48 48 48 48 48 48 48 46 45 44 44 43 42 41 40 39 38 38 38 38 37 37 37 36 36 35 34 33 32 32 31 30 30 30 29 29 29 28 26 25 26 26 24 24 23 23 24 25 27 28 29 29 29 27 26 26 27 27 29 29 30 32 35 35 32 29 27 25 25 25 25
49 49 50 49 49 48 48 48 48 48 48 48 48 48 49 49 49 49 49 49 48 47 46 45 44 44 43 42 41 39 38 38 38 38 37 37 36 36 35 34 33 32 31 30 30 29 29 28 28 27 27 26 24 25 26 25 24 24 23 23 23 24 27 29 30 29 28 27 27 27 27 27 29 30 30 32 35 36 33 29 27 26 25 25 24
50 50 49 49 49 48 48 48 49 49 49 49 49 49 50 50 50 50 50 50 49 48 47 46 45 44 44 43 41 40 39 38 38 38 37 37 36 35 34 33 32 31 30 29 28 27 27 27 27 26 26 25 25 26 27 26 26 25 24 24 24 24 27 29 30 29 28 27 27 27 27 27 29 30 30 31 35 36 33 29 27 26 25 25 24
50 50 49 49 48 48 49 49 50 50 51 51 51 51 51 51 51 51 51 50 49 48 47 46 45 45 44 43 42 40 40 39 38 38 38 37 36 35 34 32 31 30 29 27 27 27 27 27 27 27 26 26 26 26 27 28 27 27 25 24 24 24 26 29 30 29 28 27 27 27 27 28 29 30 30 31 34 36 33 29 27 25 25 25 24
50 49 49 48 48 49 49 50 51 51 52 52 52 53 53 53 52 51 51 51 50 49 47 46 46 45 44 43 42 41 40 39 38 38 38 37 36 36 34 32 30 29 28 27 27 27 28 29 29 28 27 26 26 27 28 28 28 27 25 24 24 24 26 28 29 29 28 27 27 28 28 28 29 30 30 31 34 36 33 29 27 25 24 24 23
49 49 48 48 49 49 50 51 52 53 54 54 54 54 54 54 53 52 51 51 50 49 47 46 46 46 45 44 44 42 41 40 39 38 38 37 36 36 35 33 30 29 28 27 28 29 29 30 30 29 29 28 27 27 27 28 28 27 26 24 24 24 26 28 29 28 28 28 28 28 28 28 29 30 30 30 33 36 33 30 27 25 23 23 23
49 49 49 49 49 50 51 52 53 54 55 55 56 55 55 54 54 53 52 50 50 49 48 47 47 46 46 45 45 44 42 41 40 39 38 37 36 35 34 33 31 30 29 28 28 29 29 29 29 29 29 29 28 28 27 27 27 27 26 24 24 24 26 27 28 28 28 28 28 28 28 28 29 29 30 30 33 35 34 30 27 25 23 23 23
49 49 49 49 50 50 51 53 54 55 56 57 57 56 56 55 54 53 51 50 50 49 49 48 47 47 47 47 46 45 44 42 40 39 38 37 36 35 34 33 32 31 30 30 29 29 28 28 28 28 28 28 28 28 28 27 27 27 26 24 23 24 25 27 27 27 28 28 28 28 28 28 28 28 29 30 32 35 34 31 28 25 23 22 22
49 49 49 49 50 51 52 54 55 56 57 57 57 57 56 56 54 52 50 50 50 50 49 49 48 48 48 48 47 46 45 42 41 40 38 37 36 35 34 33 33 32 31 30 30 29 28 27 28 29 28 27 27 28 28 27 27 27 26 23 22 24 25 26 27 26 26 27 27 27 28 28 28 28 29 29 32 35 34 31 28 26 23 22 22
49 50 49 50 50 51 53 55 56 58 58 58 58 57 57 55 52 50 50 50 50 50 49 49 49 49 49 49 49 48 46 43 42 41 39 38 37 36 35 34 33 32 32 31 30 29 29 28 28 29 30 28 26 27 27 27 27 27 26 24 23 24 25 26 26 25 26 27 27 27 28 28 27 28 29 29 31 34 34 32 29 26 23 21 21
50 50 50 50 51 52 54 56 57 58 58 58 58 58 57 53 51 50 50 49 50 50 50 49 50 50 50 50 50 49 47 44 42 41 40 38 37 36 35 35 34 33 32 31 31 30 30 29 29 29 30 30 28 26 27 27 27 27 28 26 24 24 25 25 26 25 25 26 27 27 28 27 27 27 28 28 31 34 34 32 29 26 24 21 20
50 50 50 51 52 53 55 56 58 58 58 58 58 58 56 52 52 50 49 51 52 52 51 51 51 51 52 52 52 49 46 44 42 41 40 39 38 37 36 35 34 34 33 32 32 32 31 31 30 29 30 31 29 27 26 26 27 27 28 27 25 24 25 26 26 25 24 25 27 27 27 27 26 27 28 28 30 33 34 33 30 27 25 22 20
51 51 51 51 52 54 55 57 58 58 58 58 58 58 56 55 53 51 52 53 53 53 52 52 52 53 53 53 51 49 46 44 42 40 40 39 38 37 37 36 35 34 34 34 33 33 32 32 31 29 29 31 30 27 26 26 27 26 27 27 25 25 25 26 26 25 24 25 26 26 27 26 25 26 27 28 30 33 33 34 32 28 26 23 20
51 51 51 52 53 55 56 57 57 58 58 58 59 59 59 57 54 53 55 54 54 53 53 53 53 54 54 53 50 47 45 43 41 41 41 40 38 38 37 37 36 35 35 35 34 33 32 32 31 29 29 31 30 27 25 25 26 26 25 25 25 25 25 26 26 25 24 24 25 25 26 25 25 26 27 27 30 33 33 34 34 30 27 24 21
51 51 52 53 54 55 55 56 57 58 59 60 61 61 58 56 55 55 55 54 54 54 54 54 54 54 53 52 48 46 44 41 41 41 41 40 39 38 38 37 37 36 34 34 34 33 32 32 30 29 29 29 29 26 25 25 25 25 24 23 24 25 25 25 25 25 24 24 25 25 25 24 24 26 26 28 31 32 32 33 35 33 28 25 22
51 52 54 54 54 54 54 55 57 59 60 60 58 55 53 54 54 52 53 54 55 55 55 55 54 53 52 49 47 44 42 40 40 41 41 40 39 39 38 37 36 36 34 33 34 33 32 31 29 28 27 27 27 25 24 24 24 24 22 22 23 24 24 25 25 24 23 24 24 24 23 24 24 25 26 28 31 32 32 33 36 35 30 26 23
52 52 52 52 53 53 53 55 57 58 58 55 51 50 51 50 47 49 52 55 56 57 56 55 54 51 49 46 44 42 40 40 40 40 41 40 40 39 38 36 35 35 35 33 33 33 32 30 27 26 25 25 25 24 24 24 23 22 21 22 23 22 22 23 23 23 23 23 23 22 22 23 24 25 26 28 31 32 32 33 36 37 33 27 24
51 51 51 51 52 52 52 53 53 52 52 52 50 50 49 45 46 52 55 57 58 57 56 55 51 48 45 42 40 39 38 39 39 40 40 40 40 39 38 36 34 34 34 34 33 33 31 28 24 23 24 23 23 23 23 23 22 20 20 21 21 20 20 21 22 22 22 23 22 22 22 23 24 24 26 28 31 31 32 33 36 39 35 28 25
51 51 51 50 49 49 49 49 49 47 47 48 48 52 52 51 53 55 57 60 59 57 55 51 47 42 40 37 35 35 37 38 38 37 38 39 40 39 38 36 33 31 33 34 33 31 28 23 21 22 24 23 23 23 23 22 21 19 19 21 20 17 18 20 21 21 22 22 22 22 23 23 23 24 26 28 31 31 32 34 37 40 36 29 26
50 50 49 48 47 47 47 47 48 47 44 44 49 54 56 57 55 55 60 61 58 54 49 44 40 36 34 33 32 32 34 34 33 33 35 38 38 38 38 36 33 30 31 33 29 25 23 20 19 22 24 24 24 24 22 22 20 18 19 20 18 16 18 20 20 21 21 21 22 22 23 23 23 24 26 28 30 31 32 34 37 41 37 29 26
49 49 48 48 46 47 48 48 48 47 44 45 51 50 53 56 53 56 62 59 56 48 40 39 34 29 30 31 30 30 31 32 32 32 34 35 36 38 39 37 33 30 29 29 24 21 20 18 20 22 23 22 23 23 22 21 19 18 18 18 16 16 17 19 20 20 20 21 22 22 22 23 23 24 26 28 30 31 32 34 37 41 37 29 27
49 48 47 48 47 48 49 47 47 47 44 46 47 41 45 51 50 59 59 52 53 44 35 35 31 28 28 30 30 27 28 30 30 31 33 35 36 38 38 37 33 30 29 25 22 20 20 19 21 22 21 22 23 24 22 20 18 17 17 17 16 16 17 18 19 19 20 21 21 21 22 22 23 24 26 29 30 31 32 34 38 41 38 30 28
48 48 48 48 47 47 47 46 46 46 46 46 41 33 36 44 50 59 53 49 53 46 39 36 32 32 29 31 30 26 25 25 25 28 32 36 37 37 37 36 33 30 27 23 20 20 21 20 19 21 22 24 25 25 23 19 16 15 15 15 16 16 18 18 19 19 20 21 21 21 21 21 22 25 27 29 30 30 31 34 38 41 38 31 29
48 48 48 47 46 47 49 48 45 46 46 40 36 32 33 41 53 57 51 50 51 43 40 38 35 34 31 32 31 28 27 25 23 26 32 35 36 36 35 34 32 29 26 21 19 19 21 20 19 22 25 27 27 26 24 19 15 14 15 15 16 17 19 19 20 20 20 20 21 20 20 21 23 25 27 28 29 30 31 35 38 40 39 32 29
49 49 47 47 47 46 48 48 45 46 41 34 34 34 32 41 54 56 51 50 48 43 40 37 36 32 29 32 31 30 29 26 22 22 26 30 34 35 32 32 31 29 25 22 19 19 22 23 23 27 29 29 27 26 23 19 15 15 15 16 16 17 19 20 21 21 20 21 21 19 19 21 23 25 27 28 29 29 32 36 38 40 39 32 29
50 49 47 47 46 45 48 48 47 46 38 34 35 34 36 44 53 55 52 49 48 46 38 32 32 28 28 31 32 32 28 25 23 19 18 20 28 33 32 32 32 29 25 21 20 20 21 24 26 29 29 28 26 24 20 17 14 13 15 16 17 18 19 20 23 22 20 21 20 18 19 21 24 26 27 28 28 30 33 37 38 40 39 32 28
50 49 48 47 46 46 49 48 47 46 41 39 37 39 44 46 52 56 51 45 44 42 33 29 29 27 28 27 29 32 29 27 26 21 19 19 24 30 35 34 31 29 24 21 21 19 19 21 24 27 27 26 24 21 18 17 15 13 13 17 18 19 20 21 23 22 20 21 19 18 20 22 25 26 27 28 28 31 34 37 39 40 38 32 28
49 49 48 48 47 47 49 48 47 46 45 46 43 45 49 49 56 59 49 43 41 35 27 26 28 29 28 25 29 32 30 29 28 24 21 20 20 25 32 32 29 26 22 22 21 19 18 18 20 23 25 25 23 20 18 19 18 14 13 16 20 22 21 21 22 22 21 20 17 18 21 23 25 27 28 28 29 32 34 37 39 40 38 31 27
49 49 49 48 47 47 48 47 46 46 47 49 48 47 49 52 56 52 46 46 40 32 27 23 22 25 29 29 32 34 31 30 29 27 26 25 24 24 28 30 30 25 22 23 23 23 21 19 20 22 25 25 22 19 17 19 19 16 14 14 17 19 21 22 22 21 21 20 17 19 22 24 26 27 27 28 31 33 35 37 38 40 39 32 27
49 49 49 48 47 47 48 47 47 47 47 48 50 50 50 51 52 48 50 51 40 34 34 28 20 20 30 34 37 37 33 32 32 31 30 30 31 29 31 31 26 23 26 26 24 25 23 21 22 22 23 22 19 17 16 18 19 18 17 16 15 15 18 21 21 20 20 18 17 20 23 25 27 27 27 30 33 34 35 37 39 41 39 32 27
49 49 49 48 48 48 49 49 48 48 48 49 50 51 50 47 49 51 53 49 40 35 35 32 22 19 28 36 42 42 36 34 32 30 32 33 34 33 32 27 18 21 29 28 25 24 21 21 21 20 21 19 16 16 16 18 20 20 20 19 18 15 17 19 19 19 18 17 19 22 24 27 27 26 28 31 33 34 36 38 40 41 40 32 27
50 50 50 49 49 49 49 50 49 49 50 52 52 51 49 47 48 49 49 43 37 34 35 34 27 25 29 33 42 46 40 37 32 31 34 34 34 33 30 25 18 20 25 26 26 22 18 17 18 18 19 17 15 16 16 17 20 21 21 20 18 16 18 19 18 17 17 18 21 24 26 27 26 26 30 32 33 35 37 40 41 41 39 32 26
51 51 50 49 49 49 49 50 50 51 52 53 52 50 47 46 46 44 44 39 35 35 36 36 33 35 36 34 40 44 41 40 37 36 37 34 34 31 29 26 21 23 24 23 25 21 16 15 14 15 16 17 17 16 16 16 18 20 21 21 18 16 17 17 17 18 20 22 24 26 27 25 25 28 31 32 34 36 38 41 42 41 38 30 26
51 51 49 49 49 49 50 50 51 52 52 52 50 47 43 42 42 40 40 38 35 36 37 37 37 38 38 37 42 44 42 41 40 39 38 35 33 30 29 27 24 26 26 25 25 22 17 14 14 14 15 18 18 16 15 15 16 17 19 20 19 17 17 18 20 22 23 25 26 26 24 25 27 30 31 32 35 36 39 41 41 40 35 29 25
51 50 49 49 49 49 50 50 51 51 51 49 46 43 41 40 40 39 39 38 35 36 38 40 40 40 40 40 43 44 42 42 41 40 38 35 33 30 28 26 25 26 27 27 25 21 16 15 17 16 16 18 17 16 15 14 16 17 18 20 21 21 21 22 23 24 26 26 25 23 23 26 29 30 31 33 34 35 39 41 40 38 33 28 25
49 48 49 49 50 50 50 50 50 50 49 46 44 42 41 40 39 39 39 38 36 35 39 41 41 40 39 40 42 43 42 43 44 43 39 36 32 28 26 25 24 25 26 26 23 19 15 15 19 20 18 17 16 16 16 15 16 17 19 21 23 23 24 25 25 26 25 24 22 22 25 28 30 31 33 33 33 36 39 39 38 35 29 26 25
48 48 49 50 50 49 50 50 50 49 47 45 43 42 41 40 38 37 37 36 35 35 37 39 38 38 38 38 40 41 42 44 46 44 40 36 30 26 26 26 23 23 25 25 23 20 16 18 21 21 20 16 14 15 16 17 17 18 20 20 21 22 23 24 25 24 22 20 21 24 28 30 32 34 33 31 33 38 38 36 37 34 27 24 24
48 48 49 50 49 49 50 50 49 48 46 44 43 42 41 39 36 35 34 34 35 35 35 36 36 35 36 38 41 43 43 43 43 42 39 34 28 27 27 24 22 22 22 23 23 21 19 21 22 21 21 17 15 16 17 19 19 20 21 19 18 19 20 20 20 20 19 21 25 28 31 32 34 33 30 30 35 39 37 35 37 33 26 25 24
48 49 50 49 49 49 50 49 48 47 45 44 43 41 40 37 35 32 31 31 33 34 34 34 34 35 36 37 40 43 42 41 41 39 37 32 28 27 26 24 23 21 20 21 24 25 23 22 21 22 23 19 18 18 19 20 21 21 20 18 17 16 17 17 18 19 20 23 27 30 31 31 32 31 29 32 38 38 34 34 36 30 25 26 26
49 50 50 49 48 49 50 49 47 46 45 43 42 40 39 36 33 30 28 29 30 31 32 33 34 35 36 37 39 41 41 41 40 39 36 32 30 30 25 24 24 21 20 24 28 28 25 22 21 22 22 20 20 20 21 21 21 21 20 19 18 17 18 19 20 20 21 25 28 31 31 29 30 32 33 37 39 34 31 34 36 29 26 28 28
50 50 49 49 48 49 49 48 47 45 44 43 42 40 38 36 33 30 27 27 28 29 30 33 35 35 36 38 39 39 40 40 39 39 39 32 30 32 28 25 25 23 23 27 30 27 22 21 21 21 21 21 22 23 24 23 22 22 21 21 21 21 21 21 22 23 26 30 32 33 32 29 31 35 39 42 39 34 33 35 35 30 28 28 27
50 49 49 48 49 50 49 47 46 45 44 43 42 40 38 36 33 31 28 26 27 28 29 31 34 36 37 38 38 38 40 40 38 41 43 36 28 28 28 26 24 25 26 27 28 25 21 21 23 23 23 24 24 25 27 26 25 24 23 23 23 23 23 22 23 26 29 31 32 32 33 33 36 40 44 43 37 34 35 36 35 31 28 27 27
49 48 48 48 49 50 48 47 46 45 44 43 42 41 39 37 35 33 30 28 27 27 29 31 34 36 38 39 39 39 40 41 40 41 45 42 35 29 26 26 27 27 27 27 26 25 23 25 28 29 29 27 26 27 28 28 27 27 26 24 24 24 24 23 23 25 27 30 31 33 35 37 40 43 43 39 35 36 37 37 34 30 28 28 28
49 48 48 48 50 50 48 47 46 45 44 43 42 41 40 39 37 36 33 31 28 27 28 31 34 36 39 40 40 40 40 41 41 43 45 45 44 40 33 32 32 28 27 27 26 26 27 29 32 35 35 31 28 29 29 29 29 29 28 26 26 26 25 24 23 25 27 30 32 34 36 39 42 41 38 36 36 37 37 36 32 30 30 30 27
49 48 47 48 49 49 48 47 46 44 44 43 42 42 41 40 40 38 36 34 31 28 27 29 34 37 39 40 40 41 42 41 41 44 47 46 47 47 43 40 39 33 31 31 28 28 31 32 33 35 35 34 32 31 30 31 33 33 31 29 29 28 27 25 25 26 28 30 32 34 36 38 39 37 35 35 35 35 35 34 32 31 31 29 27
50 48 47 48 49 49 48 47 46 45 44 43 43 42 42 41 41 40 39 37 35 33 29 28 32 36 39 40 39 41 43 43 43 45 48 49 48 47 45 44 44 40 35 32 30 30 31 33 36 35 34 35 34 33 32 33 36 36 35 32 31 31 30 28 27 28 30 31 32 33 34 34 34 34 33 31 31 32 33 32 32 33 32 31 30
50 48 48 49 49 49 48 48 46 46 45 44 44 44 44 43 43 42 40 40 39 37 33 28 29 34 39 39 39 42 44 44 45 47 49 49 48 47 46 44 45 42 36 33 33 33 32 33 35 35 34 35 35 34 34 35 37 38 36 34 35 34 32 31 31 32 33 33 32 32 32 32 32 32 31 30 30 32 32 33 34 34 33 33 33
49 49 49 49 49 49 48 48 47 46 45 44 45 45 46 46 45 44 42 42 41 39 35 29 27 32 37 37 40 45 48 48 47 49 50 50 49 50 47 43 43 42 36 35 38 38 35 32 32 33 34 33 34 35 35 36 36 36 36 37 37 34 33 33 33 34 35 33 32 32 33 33 32 31 31 31 32 33 33 35 36 35 34 34 34
49 49 49 49 49 49 49 48 47 46 46 45 46 46 47 47 46 46 45 44 42 38 34 29 25 31 38 41 45 49 50 51 51 51 51 50 50 52 49 45 42 38 35 36 38 37 35 32 32 33 33 32 33 35 36 38 37 37 38 39 35 34 34 34 34 35 35 33 32 33 34 33 32 31 31 32 33 34 35 36 36 35 35 35 34
Wind_Direction
285 288 291 293 295 297 299 301 303 305 307 308 309 309 309 309 310 310 310 311 311 311 312 313 313 313 313 312 312 311 311 308 306 305 304 302 302 301 301 301 301 300 299 298 296 295 293 292 291 291 291 291 291 292 291 286 282 282 284 283 284 284 286 289 291 292 289 291 294 298 302 306 310 315 321 328 332 332 324 316 311 308 305 300 293
284 288 290 292 294 295 297 299 302 304 306 307 308 308 308 309 310 310 311 311 311 312 312 312 312 312 313 312 312 312 311 309 308 306 305 305 305 305 305 305 304 304 302 301 300 298 297 297 296 294 292 290 290 290 287 283 280 282 284 283 284 282 282 285 289 290 288 289 292 296 300 304 309 314 320 327 333 334 327 320 314 311 308 303 296
284 287 289 291 293 294 296 298 301 303 305 306 306 307 308 309 310 310 311 311 311 312 312 311 310 311 311 312 312 312 311 310 309 307 307 306 306 306 306 306 306 305 304 303 302 301 300 299 297 295 292 290 288 286 285 283 281 281 284 283 284 282 280 282 286 288 287 288 290 294 299 304 309 314 320 328 335 336 330 323 317 314 313 308 300
284 287 289 290 292 294 296 298 300 302 303 304 305 306 307 308 309 310 310 311 311 312 311 310 309 309 310 311 312 312 311 310 309 308 307 307 306 306 306 306 306 305 305 304 303 302 301 300 298 297 294 290 284 283 284 284 283 281 282 283 284 282 279 280 283 286 286 287 289 292 298 304 309 313 320 328 336 337 331 325 320 317 317 314 306
284 286 288 290 291 293 295 298 299 301 302 303 304 305 307 308 308 309 310 310 311 311 310 309 308 308 309 310 311 311 311 310 309 307 307 306 305 305 305 305 305 304 304 304 304 304 303 302 301 299 297 291 283 281 282 284 284 282 281 283 283 281 277 278 281 283 284 285 288 292 298 304 309 313 319 328 336 338 332 325 322 320 320 319 311
284 286 288 289 291 293 295 297 298 299 301 302 303 305 306 307 308 309 309 310 310 310 310 309 308 308 308 310 311 311 310 309 308 307 306 305 305 304 304 304 304 304 304 305 305 306 305 305 302 300 297 292 284 279 279 282 284 282 280 282 282 280 276 276 279 280 282 284 287 291 297 304 309 313 318 326 335 338 333 325 324 323 323 322 314
284 286 288 289 290 293 295 296 297 299 300 302 303 304 305 306 307 308 309 309 309 309 309 308 307 307 308 309 310 310 309 308 307 306 304 304 304 304 304 304 304 304 304 305 307 308 307 306 303 299 295 292 286 280 277 279 281 280 278 279 280 277 274 274 277 278 280 284 287 291 296 304 309 313 317 325 334 339 334 327 324 325 325 324 316
284 286 287 288 290 293 294 296 297 299 300 302 303 304 305 306 307 308 308 308 309 309 309 308 307 307 308 309 309 309 308 307 306 305 304 303 303 303 303 303 304 304 304 306 307 309 309 308 305 299 292 289 287 283 278 276 277 277 275 277 278 275 272 271 274 276 279 283 286 290 296 304 310 313 317 324 333 339 336 329 325 325 326 326 320
284 285 287 288 290 293 294 296 297 299 301 302 303 304 305 306 307 308 308 308 309 309 309 308 308 307 308 309 309 309 307 306 305 304 303 302 302 302 302 303 304 304 304 306 307 308 308 308 308 304 294 287 285 283 279 274 273 274 273 274 276 273 269 269 273 275 278 282 286 291 296 303 310 314 317 323 332 339 338 331 327 326 326 327 323
284 285 287 289 291 293 295 296 298 299 301 302 303 304 306 307 307 307 307 308 309 309 309 309 308 308 308 309 309 308 307 306 303 302 302 301 301 301 301 302 302 303 303 305 306 307 307 307 309 309 301 289 282 281 278 273 270 271 271 272 274 269 266 268 272 274 278 282 286 290 296 303 310 314 317 322 331 339 339 333 329 326 325 327 326
284 286 288 290 292 294 295 297 298 300 301 302 303 305 306 307 307 306 307 308 309 309 309 309 309 308 309 309 309 308 306 305 302 301 301 300 300 300 300 301 301 301 302 303 304 305 306 307 307 308 306 295 284 279 277 272 268 268 269 271 271 266 264 266 270 273 277 281 285 290 295 302 309 313 317 322 331 339 340 335 330 327 325 325 327
284 286 288 290 292 294 295 297 298 300 301 303 304 305 306 306 306 307 308 309 309 310 310 310 309 309 309 308 308 307 306 304 301 300 299 298 298 298 299 299 299 299 300 301 302 304 306 306 305 305 305 301 289 280 276 273 268 265 266 269 269 263 262 265 268 271 275 279 284 289 295 301 308 314 317 323 331 338 341 337 330 327 324 322 325
285 287 289 291 292 294 295 297 298 300 302 303 304 305 306 306 306 307 308 310 311 310 310 310 310 309 309 308 308 307 306 304 301 298 297 296 295 296 297 297 297 298 298 299 301 302 305 305 304 303 302 301 295 284 277 274 270 265 263 266 266 261 260 262 265 268 273 278 283 288 294 300 308 314 318 323 331 338 342 339 332 326 323 320 321
285 287 289 290 292 293 295 297 299 300 302 304 305 306 306 305 306 307 309 310 311 311 310 310 310 310 309 308 308 307 304 302 300 297 295 294 294 295 296 295 296 297 297 298 300 302 304 305 303 302 300 299 296 287 279 274 271 266 262 264 263 259 258 259 262 265 271 277 283 288 294 300 307 315 318 322 330 337 342 341 335 328 323 319 318
285 287 288 289 291 293 295 297 299 301 303 305 306 306 305 305 306 307 309 310 311 311 311 310 310 310 309 308 307 305 303 301 299 296 294 294 295 295 295 294 294 296 297 298 299 302 304 304 303 300 297 297 295 288 279 275 271 267 263 262 260 257 255 255 258 263 269 277 283 288 294 300 307 314 318 322 330 336 340 343 339 331 324 319 316
285 287 287 289 291 293 296 298 300 302 304 306 307 306 305 305 306 307 309 311 311 311 311 311 310 310 309 307 305 303 301 300 298 296 295 295 295 295 294 293 294 295 296 297 299 301 303 303 301 298 295 294 294 287 279 275 271 267 264 261 257 253 250 251 255 261 268 277 282 288 293 299 307 313 317 322 329 334 338 343 342 334 326 320 314
284 285 286 288 291 294 296 299 301 303 305 307 307 306 305 306 306 308 310 311 312 312 312 311 310 309 308 305 303 300 299 298 296 295 295 295 295 295 294 294 295 295 296 297 299 301 302 301 298 294 292 293 292 286 278 275 272 267 264 260 253 248 245 248 254 260 267 275 280 286 292 297 306 312 316 322 329 334 337 341 344 338 328 321 314
284 285 286 289 292 294 297 300 303 304 307 308 307 307 307 307 308 310 312 313 313 313 312 311 309 308 306 304 301 299 298 296 294 294 295 296 295 295 294 295 296 296 297 298 299 300 301 299 294 290 289 292 292 285 279 276 272 267 263 259 251 245 244 246 252 259 266 273 278 284 290 297 306 312 316 323 329 333 336 339 344 341 330 321 315
283 285 287 289 292 295 299 301 303 306 309 310 309 310 309 309 311 314 315 314 313 313 312 310 309 307 305 303 301 298 296 295 294 295 296 296 296 296 295 296 297 298 298 298 299 300 300 297 290 287 290 294 294 289 283 278 272 267 262 258 249 243 243 246 252 258 265 271 276 282 288 296 305 312 317 324 330 333 336 338 342 342 333 322 317
282 285 287 290 293 296 299 300 304 309 311 312 313 314 314 312 314 316 316 315 314 313 311 309 308 307 305 302 300 299 297 295 296 297 298 298 298 298 297 297 298 298 299 298 299 300 299 294 286 286 291 294 295 293 287 280 273 266 261 256 249 243 244 247 252 258 264 270 275 280 287 297 305 313 318 325 331 334 336 337 340 342 335 323 319
281 284 287 290 294 296 298 300 304 308 307 309 312 313 312 310 312 316 317 317 316 313 311 310 309 307 305 303 301 301 299 298 299 300 300 300 301 301 301 301 301 301 300 299 299 300 297 288 282 286 291 293 297 297 291 283 273 266 261 254 247 243 244 247 252 259 264 269 274 280 288 297 306 314 321 327 331 334 335 336 339 341 336 325 320
281 284 287 290 293 294 296 299 301 302 300 302 306 308 306 306 310 315 317 317 316 315 314 313 311 309 308 304 302 305 305 304 302 300 301 303 304 306 306 306 306 305 302 300 300 300 296 283 280 289 293 295 299 299 293 284 274 266 260 251 245 242 244 249 253 259 263 268 274 280 289 298 308 317 323 328 332 334 334 334 338 340 335 325 321
282 284 286 288 290 292 294 296 297 298 298 299 303 304 302 302 308 315 318 317 318 318 316 314 311 310 310 305 305 309 311 308 305 303 305 307 310 311 310 309 310 308 303 300 298 302 298 283 283 294 299 303 305 303 296 286 276 265 256 248 245 244 247 251 255 259 262 267 273 280 290 299 311 319 325 330 332 334 333 334 337 339 335 325 321
283 284 286 287 289 291 292 294 295 296 298 300 302 302 298 301 309 316 315 314 314 312 311 311 307 306 304 302 305 308 309 309 308 307 308 309 312 314 312 310 312 309 305 299 293 300 302 287 287 297 303 310 311 308 301 289 276 264 255 248 248 248 250 255 258 261 264 266 271 281 291 302 314 322 327 331 333 333 332 333 336 339 336 326 323
283 284 286 288 290 292 292 294 295 296 300 300 299 297 294 301 311 312 307 306 306 303 304 304 302 305 300 295 297 299 303 305 307 304 306 309 312 314 312 311 313 311 305 299 291 297 307 295 287 296 303 310 312 309 302 288 272 263 259 255 254 255 257 261 263 264 264 266 273 283 293 306 318 324 329 331 332 332 331 332 334 338 336 326 324
282 283 286 288 290 292 293 294 295 297 301 299 296 295 292 300 307 304 301 304 303 301 302 296 294 299 297 294 290 289 294 295 297 295 299 309 312 311 310 311 314 314 306 298 293 294 303 301 293 298 302 307 308 305 297 282 267 264 266 265 264 265 266 264 264 265 264 266 274 285 298 312 322 326 329 331 332 331 332 332 332 336 336 326 323
282 283 286 287 289 291 291 291 293 296 294 292 295 295 291 296 298 296 297 298 298 303 304 295 292 293 292 294 290 288 289 287 286 285 293 306 311 308 306 310 313 314 308 299 299 295 295 296 296 300 301 303 302 300 292 276 265 265 268 271 274 276 273 268 266 267 264 266 274 285 302 317 324 327 329 331 331 331 332 331 331 335 335 326 322
282 284 285 286 288 288 286 288 291 292 287 286 291 287 286 292 292 293 294 292 296 303 302 292 291 291 288 290 288 287 285 281 276 273 279 292 301 300 299 307 308 309 308 302 305 305 300 296 296 298 299 300 298 295 286 271 265 267 270 274 279 283 277 271 270 268 263 266 274 288 305 318 324 326 329 330 329 330 331 329 330 334 334 325 319
282 284 284 285 285 284 285 287 289 288 284 285 284 280 284 289 289 290 292 291 295 298 294 288 287 286 286 286 283 282 281 278 273 268 269 278 288 290 292 301 304 304 306 304 306 307 306 302 299 299 299 299 297 294 279 263 261 260 268 275 277 279 278 275 273 267 261 264 277 295 310 320 323 325 327 326 327 330 329 328 329 333 333 323 317
281 282 283 284 285 284 285 287 287 285 284 284 282 282 287 290 290 291 293 292 289 285 283 286 285 284 284 277 273 274 274 272 269 263 260 266 271 275 284 294 300 300 300 302 300 297 304 309 307 306 307 302 297 294 278 264 260 253 265 283 280 274 274 276 273 265 260 265 281 303 315 320 322 324 324 324 326 327 327 328 329 332 332 323 315
280 281 282 283 284 285 286 287 286 285 285 285 285 287 290 292 291 291 293 291 285 274 267 265 269 279 278 270 266 265 263 263 264 260 252 252 253 257 272 288 298 294 293 297 291 291 298 305 308 311 312 307 299 292 277 267 264 255 260 280 285 278 274 272 268 261 258 267 286 307 316 317 319 321 321 323 324 324 326 328 328 332 333 323 313
278 280 281 283 284 285 286 286 286 288 288 288 288 289 290 292 291 289 286 285 281 270 261 248 241 261 269 267 266 263 259 257 259 258 253 250 252 256 266 282 291 283 286 291 286 290 296 298 302 307 311 310 307 297 278 269 267 263 260 264 271 278 281 274 263 255 257 272 295 310 313 314 317 317 319 321 320 322 325 326 327 332 333 323 312
278 279 281 282 283 284 285 285 287 289 290 290 290 291 292 291 286 283 279 278 275 265 253 245 235 242 256 259 260 260 256 253 253 254 251 249 252 257 264 272 274 272 282 285 283 285 287 290 297 303 307 310 318 310 287 272 268 268 269 268 265 272 285 281 265 255 263 287 304 308 309 311 313 314 317 316 316 321 323 324 326 330 332 323 311
277 279 280 282 284 285 286 287 289 289 290 292 292 293 292 286 279 277 276 275 274 262 247 242 234 229 241 248 252 255 253 248 245 243 245 249 254 255 255 257 255 257 267 276 280 279 275 280 287 296 303 304 317 323 307 286 274 271 273 275 272 274 283 279 270 268 282 299 303 304 306 308 310 313 314 312 315 320 320 322 325 329 330 321 310
277 279 281 283 285 286 288 289 291 292 293 293 293 292 287 282 278 277 276 276 274 264 249 242 238 235 238 240 245 249 248 244 240 238 241 250 254 249 245 250 248 244 249 263 276 279 272 270 280 297 304 301 304 313 317 307 290 280 276 274 271 274 280 278 277 282 290 296 298 302 305 306 310 310 308 311 317 318 319 322 324 327 328 318 309
278 281 283 285 286 288 290 291 293 294 295 295 293 291 287 282 281 278 276 276 274 264 254 249 248 244 240 238 240 243 243 242 240 238 241 248 250 243 243 248 246 245 251 259 269 276 270 265 283 300 304 306 303 300 311 319 310 295 281 271 265 266 273 274 277 281 285 291 296 301 304 305 306 305 308 315 318 316 319 321 322 326 325 315 307
279 282 284 286 287 289 292 294 296 297 297 297 295 293 290 286 284 281 278 277 272 262 255 253 252 247 240 236 237 240 241 240 239 237 236 241 244 240 241 244 242 247 252 254 261 271 270 273 287 296 297 302 305 300 299 311 315 305 289 276 266 263 265 268 272 277 284 291 296 300 302 303 303 305 311 316 314 315 319 320 321 325 321 311 305
280 283 284 286 288 291 294 296 299 300 299 299 298 296 293 290 287 285 282 279 272 262 255 251 247 242 238 233 232 237 240 239 238 237 234 235 238 237 237 238 241 248 252 250 256 264 265 268 275 283 285 287 297 298 289 294 307 307 298 286 276 270 268 271 275 281 287 292 295 298 300 301 304 308 311 311 311 317 320 319 323 324 317 307 303
280 282 283 285 289 292 295 298 300 301 300 299 299 298 296 294 292 289 286 282 275 266 258 251 245 239 236 232 227 232 238 237 237 237 234 231 232 233 233 235 239 246 250 251 255 255 246 246 254 265 272 277 286 286 282 285 293 302 303 293 284 279 277 278 280 285 289 291 293 296 299 303 307 308 308 309 315 319 319 319 323 323 314 305 301
279 280 283 286 289 293 296 299 301 301 300 300 301 300 299 297 295 294 291 286 279 271 264 256 248 241 238 233 226 230 236 235 234 235 233 228 224 227 229 234 238 239 244 251 255 247 237 244 249 252 262 271 273 276 284 279 276 293 303 297 288 283 282 283 283 287 288 291 296 298 300 303 306 307 307 313 318 317 316 318 322 320 311 305 300
277 279 282 285 289 293 297 300 300 300 300 302 302 302 300 299 298 297 293 289 283 276 269 261 252 243 239 235 230 231 233 232 231 229 229 226 218 220 228 236 237 236 239 245 249 244 242 252 255 254 261 267 267 276 286 275 269 287 300 299 292 286 286 285 284 286 286 291 296 298 299 302 306 308 309 315 316 312 311 316 321 317 305 301 298
275 278 281 285 289 293 297 299 299 300 301 303 303 301 301 300 299 298 295 290 283 277 271 263 255 245 240 237 233 231 229 229 228 223 223 227 222 220 232 239 234 234 236 241 247 245 246 256 256 250 253 261 267 278 283 271 270 285 295 298 296 291 289 286 284 286 287 291 293 294 297 301 306 307 308 313 313 308 306 312 317 313 300 297 296
274 277 281 285 289 293 296 298 298 300 302 303 302 302 301 300 300 300 297 292 286 278 270 263 256 247 240 237 235 230 226 224 223 216 213 220 224 222 228 235 231 231 233 241 249 244 241 249 249 243 245 256 266 276 281 271 271 282 288 294 294 290 291 290 290 292 292 293 292 292 294 298 303 305 307 310 310 304 303 309 313 308 300 298 296
273 277 281 285 289 292 295 297 297 299 302 302 302 302 302 302 303 302 299 294 287 280 271 263 257 250 242 236 234 230 222 218 217 212 207 210 217 223 228 229 227 232 237 243 244 234 228 237 242 245 251 259 264 272 278 274 272 277 283 292 294 290 293 295 294 292 292 293 294 294 296 299 304 306 306 307 305 301 302 306 309 305 300 298 296
272 276 280 284 288 291 295 296 297 299 301 301 302 304 305 305 304 303 301 296 289 282 273 263 256 252 246 239 234 230 221 216 215 210 207 207 210 217 225 224 223 232 241 244 237 225 226 236 242 249 256 261 264 270 275 273 271 272 276 290 297 293 294 297 295 294 296 300 300 299 300 303 306 305 303 302 301 301 303 305 306 302 298 297 294
272 275 279 283 287 291 294 295 296 299 300 301 304 306 307 306 304 303 302 299 294 285 275 265 256 251 248 242 235 230 221 216 215 210 207 207 208 212 217 218 218 225 237 240 235 232 240 246 249 254 256 258 264 270 272 270 269 267 271 285 294 292 291 294 295 297 299 300 299 300 302 304 303 301 299 299 299 300 301 303 304 303 302 299 294
271 275 278 282 286 290 293 294 296 297 299 301 305 307 306 305 304 303 304 303 298 290 279 267 258 250 247 243 235 229 223 217 215 212 209 208 209 212 217 219 218 220 229 235 235 239 247 250 250 251 253 257 266 270 271 270 268 266 270 281 291 291 289 290 291 294 297 298 299 300 301 301 299 298 298 298 297 297 299 303 304 304 303 298 292
271 274 277 281 285 289 292 293 295 296 298 302 305 306 305 304 304 304 305 304 301 295 287 274 263 253 248 245 236 228 223 219 215 212 211 211 210 212 216 219 219 220 225 230 233 237 241 243 243 245 252 261 268 268 267 266 266 268 270 278 288 291 289 290 293 296 296 297 299 298 297 298 299 299 299 298 295 295 300 303 303 303 301 296 291
271 274 277 280 284 288 291 293 293 295 298 302 304 305 304 304 304 304 304 304 302 298 293 283 269 257 250 246 242 233 222 218 217 213 212 211 211 213 214 217 219 219 220 222 225 228 230 234 238 243 252 260 262 263 263 262 265 268 270 276 285 289 290 292 296 294 291 293 298 298 299 299 299 300 300 299 297 297 301 302 302 302 300 297 293
270 273 276 280 284 287 290 292 293 295 298 301 303 304 304 305 306 305 305 304 303 299 296 291 274 258 249 240 240 237 225 216 217 216 213 211 211 212 212 214 216 216 216 218 222 225 228 233 240 244 249 251 251 254 258 262 267 269 270 276 282 285 289 293 293 289 287 292 297 298 299 298 298 299 299 298 298 298 299 300 300 300 299 296 294
269 273 276 280 284 287 290 291 293 295 297 300 302 303 305 307 307 306 306 304 303 300 297 293 274 254 245 236 233 235 228 217 215 216 214 211 210 210 210 210 208 208 212 217 220 223 226 232 237 239 241 243 244 249 257 263 268 268 269 273 278 283 287 291 290 286 286 291 295 296 296 296 296 296 297 297 297 296 298 299 299 298 298 296 294
Height
10894 10893 10893 10892 10891 10890 10890 10889 10888 10886 10885 10884 10882 10880 10879 10877 10875 10874 10872 10870 10868 10866 10864 10861 10859 10857 10855 10852 10850 10848 10846 10844 10842 10841 10839 10838 10837 10836 10835 10834 10834 10833 10832 10831 10831 10830 10830 10829 10828 10828 10827 10827 10826 10826 10825 10825 10824 10823 10822 10820 10819 10818 10817 10815 10814 10812 10811 10809 10807 10805 10804 10802 10800 10799 10797 10795 10792 10789 10786 10783 10781 10779 10777 10775 10773
10892 10891 10891 10890 10889 10888 10887 10886 10885 10883 10882 10880 10879 10877 10875 10874 10872 10871 10869 10867 10865 10863 10861 10858 10856 10854 10852 10850 10848 10846 10844 10842 10840 10838 10837 10835 10834 10833 10833 10832 10831 10830 10830 10829 10828 10827 10826 10825 10825 10824 10824 10823 10823 10823 10823 10822 10821 10821 10819 10818 10817 10816 10815 10813 10812 10811 10809 10807 10806 10804 10802 10801 10799 10797 10796 10794 10791 10787 10784 10782 10780 10777 10775 10773 10772
10890 10889 10889 10888 10886 10885 10884 10883 10882 10880 10879 10877 10876 10874 10872 10871 10870 10868 10866 10864 10862 10861 10858 10856 10853 10851 10849 10847 10845 10843 10842 10840 10838 10836 10835 10833 10832 10831 10830 10830 10829 10828 10827 10826 10825 10824 10823 10822 10821 10821 10820 10820 10820 10820 10820 10819 10819 10818 10817 10816 10815 10814 10813 10811 10810 10809 10807 10806 10804 10802 10800 10799 10797 10795 10794 10791 10789 10786 10783 10780 10778 10776 10774 10771 10770
10888 10887 10886 10885 10883 10882 10881 10880 10879 10877 10876 10874 10872 10871 10869 10868 10866 10865 10863 10861 10859 10858 10856 10853 10850 10848 10846 10844 10843 10841 10839 10838 10836 10834 10833 10831 10830 10829 10829 10828 10827 10826 10825 10824 10823 10821 10820 10819 10818 10818 10817 10817 10817 10817 10817 10816 10816 10816 10815 10813 10812 10811 10810 10809 10808 10807 10805 10804 10802 10800 10799 10797 10795 10794 10792 10790 10787 10784 10781 10779 10776 10774 10772 10770 10768
10885 10884 10883 10882 10880 10879 10878 10877 10876 10874 10872 10871 10869 10868 10867 10865 10863 10862 10860 10858 10856 10855 10853 10850 10848 10846 10844 10842 10840 10838 10837 10835 10834 10832 10831 10829 10828 10827 10827 10826 10825 10824 10823 10822 10820 10819 10818 10817 10816 10815 10815 10814 10814 10814 10814 10814 10813 10813 10812 10811 10810 10809 10808 10807 10806 10805 10803 10802 10800 10798 10797 10795 10794 10792 10790 10788 10786 10783 10780 10777 10775 10772 10770 10768 10766
10883 10881 10880 10879 10877 10876 10875 10874 10872 10871 10869 10868 10866 10865 10863 10862 10860 10859 10857 10855 10853 10852 10850 10848 10845 10843 10841 10840 10838 10836 10834 10833 10832 10830 10829 10827 10826 10825 10824 10824 10823 10822 10821 10820 10818 10817 10816 10815 10814 10813 10812 10812 10811 10811 10811 10811 10811 10810 10810 10809 10808 10807 10806 10805 10804 10803 10801 10800 10798 10797 10795 10794 10792 10790 10789 10787 10785 10782 10779 10776 10773 10771 10769 10766 10764
10880 10878 10877 10875 10874 10873 10872 10871 10869 10867 10866 10865 10863 10862 10860 10859 10857 10856 10854 10852 10850 10849 10847 10845 10842 10841 10839 10837 10836 10834 10832 10831 10830 10828 10827 10825 10824 10823 10822 10822 10821 10820 10819 10817 10816 10815 10813 10812 10812 10811 10810 10809 10809 10808 10808 10808 10808 10808 10807 10806 10805 10804 10803 10802 10802 10801 10800 10798 10796 10795 10793 10792 10791 10789 10787 10786 10784 10781 10778 10775 10772 10770 10768 10765 10763
10876 10875 10874 10872 10871 10870 10869 10867 10866 10864 10863 10862 10860 10859 10857 10855 10854 10852 10851 10849 10847 10846 10844 10842 10840 10838 10836 10835 10833 10832 10830 10828 10827 10826 10825 10823 10822 10821 10819 10819 10819 10818 10816 10815 10814 10812 10811 10810 10809 10808 10807 10807 10806 10806 10805 10805 10805 10805 10805 10804 10803 10802 10801 10800 10800 10799 10798 10796 10795 10793 10792 10791 10789 10787 10786 10784 10782 10780 10777 10774 10771 10769 10767 10764 10762
10873 10871 10870 10869 10868 10867 10865 10864 10862 10861 10860 10859 10857 10856 10854 10852 10850 10849 10847 10845 10844 10842 10841 10839 10837 10835 10834 10832 10831 10829 10827 10826 10825 10824 10823 10821 10820 10819 10817 10816 10816 10815 10814 10813 10811 10810 10809 10807 10806 10805 10804 10803 10803 10803 10802 10802 10803 10803 10802 10801 10800 10800 10799 10798 10798 10797 10796 10794 10793 10791 10790 10789 10787 10786 10784 10782 10781 10778 10775 10772 10770 10767 10765 10763 10761
10869 10868 10867 10866 10865 10863 10862 10860 10859 10858 10857 10856 10854 10852 10851 10849 10848 10846 10844 10842 10841 10839 10838 10837 10834 10832 10831 10830 10828 10826 10825 10823 10822 10821 10821 10819 10818 10817 10815 10814 10814 10813 10811 10810 10809 10808 10807 10805 10804 10802 10801 10800 10800 10800 10800 10800 10800 10800 10800 10799 10798 10797 10797 10796 10796 10795 10794 10793 10791 10790 10788 10787 10786 10784 10783 10781 10779 10777 10774 10771 10768 10766 10764 10762 10760
10866 10865 10864 10862 10861 10860 10859 10857 10856 10855 10854 10853 10851 10849 10848 10846 10845 10844 10842 10840 10838 10837 10835 10834 10832 10830 10828 10827 10825 10824 10822 10821 10819 10818 10818 10817 10816 10814 10813 10812 10811 10810 10809 10808 10806 10805 10805 10803 10802 10800 10799 10798 10797 10797 10797 10797 10797 10797 10798 10797 10796 10795 10794 10794 10794 10793 10792 10791 10790 10788 10787 10786 10784 10782 10781 10779 10778 10775 10772 10770 10767 10765 10763 10761 10759
10863 10861 10860 10859 10858 10856 10855 10854 10853 10852 10851 10850 10848 10846 10845 10843 10842 10841 10839 10838 10836 10834 10833 10831 10829 10827 10826 10824 10822 10821 10819 10818 10816 10815 10815 10815 10814 10812 10811 10810 10809 10808 10806 10805 10804 10803 10802 10801 10799 10798 10796 10795 10794 10794 10794 10794 10794 10795 10795 10795 10793 10792 10792 10792 10791 10791 10790 10789 10788 10787 10785 10784 10782 10781 10779 10778 10776 10774 10771 10768 10766 10764 10762 10760 10758
10859 10858 10857 10855 10854 10853 10852 10851 10850 10849 10848 10846 10845 10843 10842 10841 10840 10839 10837 10836 10834 10832 10830 10829 10827 10825 10823 10821 10819 10818 10816 10815 10814 10812 10812 10812 10811 10810 10809 10808 10806 10805 10804 10803 10802 10801 10800 10799 10797 10796 10794 10793 10792 10791 10791 10791 10791 10792 10793 10792 10791 10790 10790 10789 10789 10789 10788 10787 10786 10785 10784 10783 10781 10779 10778 10776 10775 10772 10770 10768 10765 10763 10761 10759 10757
10856 10855 10853 10852 10851 10850 10849 10848 10847 10846 10845 10844 10842 10840 10839 10838 10837 10836 10834 10833 10831 10830 10828 10826 10824 10822 10820 10817 10815 10814 10813 10811 10810 10809 10808 10808 10808 10808 10807 10805 10804 10803 10802 10800 10799 10798 10797 10796 10795 10794 10792 10790 10789 10788 10788 10788 10788 10789 10790 10789 10788 10788 10788 10787 10787 10787 10786 10785 10784 10783 10782 10781 10779 10778 10776 10775 10773 10771 10769 10767 10764 10762 10760 10758 10756
10852 10851 10849 10848 10847 10847 10846 10846 10845 10843 10843 10841 10839 10838 10836 10836 10835 10833 10831 10830 10829 10827 10825 10823 10821 10818 10816 10813 10811 10809 10808 10807 10806 10806 10805 10805 10805 10805 10804 10802 10801 10801 10800 10798 10797 10796 10795 10793 10792 10791 10789 10788 10787 10786 10785 10785 10785 10786 10786 10786 10786 10785 10785 10785 10785 10784 10784 10783 10782 10781 10780 10779 10778 10776 10775 10774 10772 10770 10768 10766 10763 10761 10759 10757 10755
10849 10847 10845 10844 10844 10844 10844 10843 10842 10840 10839 10838 10836 10834 10833 10832 10831 10830 10828 10827 10826 10824 10822 10820 10817 10815 10812 10809 10807 10805 10803 10803 10802 10801 10801 10802 10802 10802 10801 10800 10799 10798 10798 10796 10795 10794 10792 10791 10789 10788 10787 10786 10784 10783 10783 10782 10783 10783 10783 10783 10783 10783 10783 10783 10783 10782 10782 10781 10781 10780 10779 10778 10777 10775 10774 10773 10771 10769 10767 10765 10762 10760 10758 10756 10754
10845 10843 10841 10842 10842 10842 10841 10840 10838 10836 10835 10834 10832 10829 10828 10828 10827 10826 10825 10823 10822 10820 10818 10816 10813 10810 10808 10805 10803 10801 10799 10799 10798 10797 10798 10798 10799 10799 10798 10797 10796 10795 10795 10794 10792 10791 10790 10788 10787 10786 10785 10783 10782 10781 10780 10780 10780 10780 10781 10781 10781 10781 10781 10781 10781 10781 10780 10780 10779 10778 10777 10777 10775 10774 10773 10771 10770 10768 10766 10763 10761 10759 10756 10754 10752
10840 10839 10838 10840 10840 10839 10838 10836 10834 10832 10831 10828 10826 10824 10822 10822 10822 10822 10821 10820 10818 10816 10814 10812 10809 10806 10803 10800 10799 10797 10796 10795 10794 10794 10794 10795 10795 10795 10795 10795 10794 10792 10792 10792 10790 10789 10788 10786 10785 10783 10783 10782 10780 10779 10778 10778 10778 10778 10778 10778 10778 10779 10779 10779 10779 10779 10779 10778 10777 10777 10776 10775 10774 10772 10771 10770 10768 10766 10764 10762 10760 10758 10755 10753 10751
10836 10835 10836 10837 10837 10837 10835 10833 10831 10828 10825 10822 10820 10818 10817 10816 10817 10818 10817 10816 10814 10812 10809 10807 10804 10801 10799 10796 10795 10794 10793 10792 10791 10791 10791 10791 10791 10792 10792 10793 10792 10790 10789 10789 10787 10786 10785 10783 10782 10781 10781 10780 10778 10777 10777 10777 10776 10776 10776 10776 10776 10777 10777 10778 10778 10778 10777 10776 10776 10775 10774 10773 10772 10771 10770 10768 10766 10764 10762 10760 10758 10756 10754 10751 10750
10833 10833 10833 10835 10835 10835 10832 10829 10827 10825 10820 10816 10814 10812 10811 10811 10812 10813 10813 10811 10809 10807 10804 10802 10799 10797 10794 10793 10791 10790 10789 10788 10788 10787 10787 10787 10787 10788 10789 10790 10790 10788 10786 10785 10784 10783 10782 10781 10780 10780 10779 10778 10777 10776 10775 10775 10775 10775 10775 10775 10775 10775 10775 10776 10776 10776 10776 10775 10774 10773 10773 10772 10771 10770 10768 10766 10764 10762 10760 10758 10757 10754 10752 10750 10748
10829 10830 10831 10833 10834 10832 10829 10826 10825 10823 10817 10812 10808 10807 10806 10807 10808 10808 10808 10807 10805 10803 10799 10796 10794 10792 10790 10789 10788 10787 10786 10785 10784 10784 10783 10783 10783 10783 10784 10786 10787 10786 10784 10782 10782 10781 10779 10779 10778 10778 10777 10777 10776 10774 10774 10773 10773 10773 10773 10773 10773 10774 10774 10775 10775 10775 10774 10773 10772 10772 10771 10770 10769 10768 10766 10765 10763 10760 10758 10757 10755 10753 10750 10748 10746
10826 10827 10829 10831 10831 10828 10826 10824 10824 10821 10816 10809 10804 10803 10802 10802 10804 10805 10805 10803 10802 10798 10794 10791 10789 10787 10786 10785 10785 10784 10783 10781 10781 10780 10779 10779 10779 10779 10780 10782 10783 10784 10782 10780 10779 10779 10778 10777 10777 10776 10776 10775 10774 10773 10772 10772 10772 10772 10772 10772 10772 10772 10773 10773 10773 10773 10773 10772 10771 10770 10770 10769 10768 10766 10765 10763 10761 10759 10757 10755 10753 10751 10748 10746 10744
10822 10824 10826 10827 10828 10826 10824 10824 10822 10819 10816 10810 10804 10801 10799 10800 10802 10803 10802 10800 10797 10793 10790 10788 10786 10785 10784 10783 10782 10782 10780 10779 10778 10776 10775 10775 10775 10775 10776 10778 10779 10780 10780 10778 10777 10778 10778 10776 10776 10775 10775 10774 10773 10772 10771 10771 10771 10771 10771 10771 10771 10771 10772 10772 10772 10772 10771 10770 10770 10769 10768 10767 10766 10765 10763 10761 10759 10757 10755 10753 10751 10749 10746 10744 10742
10819 10820 10821 10823 10824 10823 10822 10821 10819 10815 10813 10810 10805 10803 10800 10799 10802 10803 10802 10800 10796 10792 10790 10787 10785 10785 10785 10783 10781 10780 10779 10777 10776 10773 10772 10771 10771 10772 10773 10774 10776 10777 10778 10777 10776 10776 10777 10776 10776 10775 10774 10773 10772 10771 10770 10770 10770 10770 10770 10770 10770 10770 10771 10771 10771 10771 10770 10769 10768 10768 10767 10766 10765 10763 10762 10760 10758 10756 10754 10752 10750 10747 10744 10742 10740
10815 10816 10817 10819 10820 10818 10817 10816 10814 10811 10810 10808 10806 10806 10804 10802 10804 10802 10800 10800 10796 10793 10792 10788 10785 10784 10784 10782 10779 10778 10777 10776 10774 10772 10770 10769 10769 10769 10770 10771 10773 10774 10775 10776 10776 10776 10776 10776 10775 10774 10773 10772 10771 10770 10770 10770 10769 10769 10770 10770 10770 10770 10770 10770 10770 10770 10769 10768 10767 10767 10766 10765 10764 10762 10760 10758 10756 10754 10752 10750 10748 10745 10743 10740 10738
10810 10811 10813 10815 10816 10815 10813 10811 10809 10807 10806 10803 10802 10806 10808 10808 10805 10798 10795 10796 10794 10793 10791 10788 10785 10782 10781 10780 10778 10777 10776 10775 10774 10772 10769 10767 10767 10766 10767 10769 10771 10772 10773 10775 10776 10776 10776 10775 10775 10773 10772 10771 10770 10770 10769 10769 10769 10769 10769 10769 10769 10769 10770 10769 10769 10769 10768 10767 10766 10766 10765 10764 10763 10761 10759 10757 10755 10753 10751 10749 10746 10744 10741 10739 10736
10804 10806 10809 10811 10813 10814 10810 10806 10806 10805 10802 10798 10798 10805 10812 10811 10801 10792 10792 10794 10792 10791 10789 10786 10783 10781 10780 10778 10776 10776 10775 10774 10773 10771 10768 10766 10766 10765 10766 10768 10769 10770 10772 10773 10775 10776 10775 10774 10774 10772 10771 10770 10769 10769 10768 10768 10768 10768 10768 10768 10769 10769 10769 10768 10768 10768 10767 10766 10765 10765 10764 10763 10761 10759 10758 10755 10753 10752 10750 10747 10745 10742 10739 10737 10735
10799 10801 10804 10806 10809 10810 10807 10804 10804 10803 10798 10794 10796 10805 10812 10810 10797 10789 10792 10793 10790 10788 10786 10783 10780 10779 10779 10777 10775 10774 10774 10774 10772 10771 10769 10768 10766 10765 10764 10766 10768 10769 10771 10772 10774 10775 10774 10774 10772 10771 10770 10768 10768 10767 10767 10767 10767 10767 10767 10767 10768 10768 10768 10767 10766 10766 10766 10765 10764 10764 10763 10761 10760 10758 10756 10754 10752 10750 10748 10746 10743 10740 10737 10735 10733
10794 10796 10798 10801 10804 10804 10801 10800 10801 10799 10794 10792 10797 10804 10808 10805 10792 10787 10791 10792 10790 10785 10782 10780 10777 10776 10776 10775 10773 10771 10772 10772 10771 10770 10770 10770 10769 10767 10764 10765 10767 10768 10769 10771 10772 10773 10772 10772 10771 10770 10768 10767 10766 10766 10766 10766 10766 10766 10766 10766 10766 10767 10767 10766 10765 10765 10764 10763 10763 10762 10761 10760 10758 10756 10755 10753 10751 10749 10747 10744 10741 10739 10736 10733 10731
10790 10790 10792 10795 10797 10797 10796 10795 10795 10794 10791 10791 10796 10800 10801 10797 10787 10782 10786 10787 10787 10783 10779 10776 10774 10772 10771 10772 10771 10768 10770 10770 10769 10769 10770 10770 10771 10771 10766 10765 10767 10767 10768 10769 10770 10771 10770 10770 10769 10768 10767 10766 10765 10765 10765 10765 10765 10765 10765 10765 10765 10765 10765 10765 10764 10763 10763 10762 10762 10760 10759 10757 10756 10755 10753 10751 10750 10748 10746 10743 10740 10737 10735 10732 10730
10785 10786 10786 10788 10790 10790 10790 10789 10789 10789 10789 10788 10791 10794 10793 10788 10779 10777 10779 10779 10780 10781 10779 10777 10775 10771 10768 10768 10767 10766 10768 10769 10767 10767 10768 10768 10769 10771 10767 10765 10766 10766 10766 10767 10768 10768 10768 10768 10767 10767 10766 10764 10763 10763 10763 10764 10763 10763 10763 10763 10763 10763 10763 10763 10763 10762 10761 10760 10760 10759 10757 10755 10754 10753 10751 10750 10748 10746 10744 10742 10739 10736 10733 10731 10728
10781 10781 10781 10783 10784 10785 10785 10785 10785 10784 10783 10783 10784 10787 10787 10781 10772 10773 10775 10775 10776 10777 10778 10777 10776 10774 10769 10765 10761 10760 10765 10766 10764 10763 10764 10766 10767 10768 10766 10766 10766 10765 10764 10765 10765 10766 10767 10766 10765 10765 10765 10763 10762 10761 10762 10762 10762 10762 10762 10762 10762 10762 10762 10761 10761 10760 10759 10758 10758 10757 10755 10754 10752 10751 10750 10748 10746 10744 10742 10740 10738 10735 10732 10729 10727
10775 10776 10777 10777 10778 10780 10780 10781 10782 10780 10778 10778 10779 10779 10779 10775 10768 10769 10770 10771 10772 10773 10774 10772 10773 10775 10772 10766 10757 10754 10759 10761 10761 10761 10760 10762 10764 10765 10766 10766 10766 10764 10763 10762 10763 10764 10764 10764 10764 10764 10763 10762 10761 10761 10760 10761 10761 10761 10761 10761 10761 10761 10760 10760 10759 10758 10757 10757 10756 10754 10753 10752 10750 10749 10748 10747 10745 10742 10740 10738 10736 10733 10730 10728 10725
10770 10771 10771 10772 10772 10773 10774 10775 10776 10775 10773 10772 10773 10773 10773 10769 10764 10764 10763 10764 10766 10767 10768 10767 10768 10771 10771 10767 10755 10750 10755 10757 10759 10758 10757 10759 10761 10762 10765 10765 10763 10762 10762 10761 10761 10762 10762 10762 10762 10762 10762 10761 10760 10760 10760 10759 10759 10760 10760 10760 10760 10760 10759 10758 10758 10757 10756 10755 10754 10752 10751 10750 10749 10748 10746 10745 10743 10741 10739 10736 10734 10731 10728 10726 10724
10764 10765 10766 10767 10767 10767 10768 10768 10769 10769 10768 10767 10768 10768 10768 10763 10759 10758 10756 10757 10760 10761 10761 10761 10762 10764 10765 10763 10751 10747 10751 10753 10755 10755 10754 10757 10758 10760 10762 10763 10761 10760 10760 10760 10760 10761 10761 10761 10760 10760 10760 10760 10760 10759 10759 10758 10758 10758 10759 10759 10759 10758 10758 10757 10756 10755 10754 10753 10752 10751 10749 10748 10747 10746 10744 10743 10740 10738 10737 10734 10732 10729 10727 10724 10722
10758 10759 10760 10760 10760 10761 10762 10762 10762 10762 10761 10761 10762 10762 10761 10757 10752 10751 10750 10751 10755 10754 10753 10752 10753 10755 10757 10755 10747 10744 10746 10748 10750 10751 10753 10754 10755 10757 10759 10760 10760 10758 10758 10759 10759 10760 10760 10759 10758 10758 10758 10758 10758 10758 10757 10757 10756 10756 10756 10757 10756 10756 10755 10755 10754 10753 10752 10751 10751 10749 10748 10746 10745 10744 10742 10740 10738 10737 10735 10732 10730 10727 10725 10722 10721
10753 10753 10753 10753 10754 10755 10756 10756 10756 10755 10754 10754 10754 10754 10753 10750 10747 10745 10744 10746 10749 10748 10745 10743 10745 10747 10749 10748 10743 10740 10741 10743 10745 10747 10750 10752 10753 10754 10756 10757 10757 10756 10755 10756 10757 10758 10758 10757 10755 10755 10755 10756 10756 10756 10755 10755 10754 10755 10755 10754 10754 10754 10753 10753 10752 10751 10751 10750 10749 10748 10746 10744 10743 10741 10740 10738 10737 10735 10733 10730 10728 10725 10723 10721 10719
10748 10748 10747 10747 10748 10749 10749 10750 10749 10748 10747 10746 10746 10745 10744 10743 10741 10740 10740 10741 10741 10740 10738 10737 10739 10741 10742 10743 10739 10736 10736 10739 10741 10743 10746 10748 10750 10751 10753 10754 10754 10752 10752 10753 10754 10755 10756 10756 10753 10752 10753 10753 10754 10754 10753 10753 10753 10753 10753 10753 10752 10752 10751 10751 10750 10750 10749 10748 10747 10746 10745 10743 10741 10739 10739 10737 10735 10733 10731 10728 10726 10723 10721 10719 10718
10743 10742 10741 10741 10742 10743 10743 10743 10743 10741 10740 10740 10739 10738 10736 10736 10735 10735 10735 10734 10734 10733 10731 10732 10734 10735 10736 10737 10737 10733 10732 10734 10737 10739 10742 10745 10747 10748 10749 10750 10751 10750 10749 10750 10752 10752 10754 10754 10752 10752 10751 10751 10752 10752 10752 10752 10753 10753 10752 10751 10750 10750 10750 10749 10748 10748 10747 10746 10745 10744 10743 10741 10739 10737 10737 10736 10733 10731 10729 10725 10723 10721 10719 10718 10716
10738 10737 10736 10736 10737 10737 10737 10738 10737 10735 10734 10733 10733 10732 10730 10729 10729 10729 10728 10727 10726 10725 10725 10726 10728 10729 10730 10732 10733 10730 10729 10731 10734 10737 10739 10742 10744 10745 10746 10747 10748 10748 10748 10748 10749 10750 10751 10750 10750 10750 10750 10750 10750 10750 10751 10753 10752 10752 10752 10750 10748 10748 10747 10747 10746 10745 10745 10744 10743 10742 10741 10739 10736 10735 10735 10734 10731 10729 10726 10723 10721 10719 10717 10716 10715
10733 10732 10731 10731 10732 10732 10733 10733 10731 10730 10729 10728 10727 10725 10724 10723 10723 10723 10722 10720 10719 10718 10719 10720 10721 10723 10724 10726 10727 10726 10726 10728 10731 10733 10736 10738 10740 10741 10742 10743 10744 10745 10746 10747 10747 10748 10748 10747 10747 10748 10748 10748 10748 10748 10750 10752 10752 10751 10751 10749 10746 10745 10745 10745 10744 10743 10742 10741 10741 10740 10739 10737 10734 10733 10732 10731 10729 10727 10725 10721 10719 10718 10716 10714 10713
10728 10727 10727 10727 10727 10728 10728 10728 10726 10724 10723 10723 10722 10720 10718 10717 10717 10717 10717 10714 10713 10712 10713 10714 10715 10716 10718 10719 10721 10721 10723 10725 10727 10730 10733 10734 10736 10737 10738 10740 10741 10742 10744 10745 10746 10746 10746 10745 10745 10745 10745 10745 10745 10746 10748 10750 10750 10749 10749 10747 10745 10744 10743 10743 10742 10741 10740 10739 10738 10737 10737 10736 10733 10730 10729 10729 10728 10727 10724 10720 10718 10717 10714 10712 10711
10723 10722 10722 10722 10723 10723 10723 10723 10721 10720 10719 10718 10716 10715 10714 10713 10712 10712 10712 10710 10708 10707 10707 10708 10709 10710 10712 10713 10714 10715 10717 10720 10722 10725 10728 10729 10731 10733 10735 10736 10737 10739 10740 10742 10743 10744 10744 10743 10742 10743 10743 10742 10742 10743 10745 10747 10747 10747 10747 10745 10744 10743 10742 10741 10740 10739 10738 10737 10736 10735 10735 10735 10733 10729 10727 10727 10726 10725 10722 10719 10716 10715 10713 10711 10710
10718 10718 10717 10717 10718 10718 10718 10718 10717 10716 10715 10713 10711 10710 10709 10708 10707 10707 10706 10705 10703 10702 10702 10702 10703 10704 10706 10707 10708 10710 10712 10714 10717 10719 10722 10724 10727 10729 10731 10733 10734 10735 10736 10738 10740 10741 10741 10741 10741 10741 10740 10740 10740 10741 10742 10743 10744 10744 10744 10743 10742 10740 10739 10738 10737 10736 10736 10735 10734 10733 10731 10731 10730 10727 10724 10724 10723 10722 10720 10718 10715 10713 10711 10709 10708
10715 10715 10713 10712 10712 10713 10714 10713 10712 10711 10710 10708 10706 10705 10703 10702 10702 10701 10701 10701 10699 10698 10697 10697 10697 10698 10700 10702 10703 10705 10707 10709 10712 10714 10717 10719 10722 10724 10727 10729 10730 10731 10732 10734 10736 10738 10739 10740 10740 10739 10739 10739 10738 10739 10740 10741 10741 10741 10741 10740 10739 10738 10737 10736 10735 10734 10733 10733 10731 10730 10729 10728 10726 10724 10722 10721 10720 10719 10718 10716 10714 10712 10710 10708 10707
10710 10710 10709 10708 10707 10708 10709 10708 10707 10707 10705 10703 10701 10700 10698 10697 10696 10696 10696 10696 10695 10694 10693 10693 10693 10694 10695 10697 10699 10700 10702 10705 10707 10709 10712 10714 10716 10718 10721 10723 10726 10728 10729 10730 10732 10735 10736 10737 10737 10737 10737 10737 10737 10736 10737 10738 10738 10738 10738 10738 10738 10736 10735 10734 10733 10732 10731 10730 10729 10727 10726 10725 10724 10722 10720 10718 10717 10716 10715 10714 10713 10711 10709 10707 10705
10705 10705 10705 10704 10703 10703 10704 10703 10703 10702 10700 10699 10697 10695 10694 10692 10691 10690 10691 10691 10690 10690 10690 10689 10688 10689 10689 10691 10694 10696 10697 10700 10702 10704 10707 10709 10712 10714 10716 10718 10720 10724 10725 10726 10729 10732 10732 10733 10734 10734 10734 10734 10734 10733 10734 10735 10735 10735 10735 10735 10735 10734 10733 10731 10730 10729 10728 10727 10726 10724 10723 10722 10721 10720 10718 10717 10715 10714 10713 10713 10711 10710 10708 10707 10705
10699 10701 10701 10700 10700 10699 10698 10698 10698 10697 10696 10694 10693 10692 10690 10688 10687 10686 10686 10685 10685 10684 10684 10684 10684 10684 10685 10686 10689 10691 10692 10694 10697 10699 10701 10704 10707 10710 10712 10713 10716 10719 10721 10724 10727 10729 10729 10730 10731 10731 10730 10730 10730 10730 10731 10731 10732 10732 10732 10733 10732 10731 10729 10728 10727 10726 10725 10724 10723 10722 10721 10720 10718 10717 10716 10714 10712 10712 10711 10711 10709 10708 10706 10705 10704
10694 10695 10696 10696 10695 10695 10694 10693 10692 10692 10691 10690 10689 10687 10685 10684 10683 10682 10681 10680 10680 10679 10679 10679 10679 10679 10679 10681 10683 10685 10686 10688 10691 10694 10696 10698 10701 10704 10707 10709 10712 10715 10719 10721 10724 10725 10726 10727 10727 10727 10727 10727 10726 10726 10726 10728 10728 10729 10729 10729 10729 10728 10726 10724 10723 10722 10721 10721 10720 10719 10719 10717 10715 10714 10713 10711 10710 10709 10709 10708 10706 10705 10703 10702 10701
10689 10690 10690 10691 10691 10690 10689 10688 10687 10687 10686 10685 10684 10682 10680 10679 10678 10676 10675 10675 10674 10673 10673 10674 10674 10673 10673 10673 10673 10674 10677 10681 10684 10687 10690 10693 10695 10698 10701 10704 10707 10711 10714 10717 10719 10720 10721 10723 10725 10725 10725 10724 10723 10722 10723 10724 10725 10725 10725 10725 10725 10725 10723 10721 10719 10718 10717 10718 10717 10716 10715 10714 10712 10712 10711 10709 10708 10707 10706 10705 10703 10702 10700 10699 10698
10684 10684 10685 10686 10686 10685 10684 10683 10682 10682 10681 10680 10679 10677 10676 10674 10672 10671 10669 10668 10668 10668 10668 10669 10669 10667 10666 10664 10661 10662 10668 10674 10677 10680 10684 10688 10690 10693 10696 10698 10701 10705 10709 10712 10714 10716 10719 10721 10722 10722 10722 10721 10720 10720 10720 10720 10721 10721 10721 10721 10722 10721 10720 10718 10717 10715 10714 10715 10714 10713 10712 10711 10709 10709 10708 10707 10706 10704 10703 10702 10700 10699 10697 10696 10695